Thief River Falls, MN

3:51 AM CDT on March 29, 2017 (GMT -0500)
Thief River Falls Regional

Weather History for KTVF - December, 2012

Change the Weather History Date:

Wednesday, December 12, 2012

  Actual Average Record
Temperature  
Mean Temperature 12 °F -  
Max Temperature 23 °F 22 °F 35 °F (1980)
Min Temperature 0 °F 9 °F -22 °F (2000)
Degree Days  
Heating Degree Days 54    
Moisture  
Dew Point 8 °F    
Average Humidity 82    
Maximum Humidity 93    
Minimum Humidity 72    
Precipitation  
Precipitation 0.00 in - - ()
Sea Level Pressure  
Sea Level Pressure 29.82 in    
Wind  
Wind Speed 10 mph (NE)    
Max Wind Speed 18 mph    
Max Gust Speed 22 mph    
Visibility 10 miles    
Events      
Averages and records for this station are not official NWS values.
T = Trace of Precipitation, MM = Missing Value Source: NWS Daily Summary

Daily Weather History Graph

Daily Weather History Graph

Search for Another Location

Airport or City:

Trip Planner

Search our weather history database for the weather conditions in past years. The results will help you decide how hot, cold, wet, or windy it might be!

Date:

Astronomy

Dec. 12, 2012 Rise Set
Actual Time 8:06 AM CST 4:31 PM CST
Civil Twilight 7:29 AM CST 5:07 PM CST
Nautical Twilight 6:50 AM CST 5:47 PM CST
Astronomical Twilight 6:12 AM CST 6:25 PM CST
Moon 7:10 AM CST (12/12) 4:10 PM CST (12/12)
Length of Visible Light 9h 37m
Length of Day
8h 25m
Waning Crescent, 1% of the Moon is Illuminated
Dec 12
Waning Crescent
Dec 13
New
Dec 19
First Quarter
Dec 28
Full
Jan 4
Last Quarter

Hourly Weather History & Observations

Time (CST) Temp. Windchill Dew Point Humidity Pressure Visibility Wind Dir Wind Speed Gust Speed Precip Events Conditions
12:15 AM -0.4 °F -14.7 °F -5.8 °F 78% 29.90 in 10.0 mi ESE 8.1 mph - N/A   Mostly Cloudy
12:35 AM -0.4 °F -14.7 °F -7.6 °F 72% 29.90 in 10.0 mi ESE 8.1 mph - N/A   Overcast
12:55 AM -0.4 °F -15.7 °F -4.0 °F 85% 29.89 in 10.0 mi ESE 9.2 mph - N/A   Scattered Clouds
1:15 AM 1.4 °F -12.5 °F -2.2 °F 85% 29.88 in 10.0 mi East 8.1 mph - N/A   Mostly Cloudy
1:35 AM 1.4 °F -14.5 °F -5.8 °F 72% 29.87 in 10.0 mi East 10.4 mph - N/A   Overcast
1:55 AM 1.4 °F -14.5 °F -2.2 °F 85% 29.87 in 10.0 mi East 10.4 mph - N/A   Overcast
2:15 AM 3.2 °F -13.1 °F -2.2 °F 78% 29.86 in 10.0 mi East 11.5 mph - N/A   Overcast
2:35 AM 3.2 °F -13.1 °F -2.2 °F 78% 29.86 in 10.0 mi East 11.5 mph - N/A   Overcast
2:55 AM 3.2 °F -13.1 °F -2.2 °F 78% 29.86 in 10.0 mi East 11.5 mph - N/A   Overcast
3:15 AM 3.2 °F -13.9 °F -0.4 °F 85% 29.85 in 10.0 mi East 12.7 mph - N/A   Overcast
3:35 AM 3.2 °F -13.9 °F -0.4 °F 85% 29.82 in 10.0 mi East 12.7 mph - N/A   Mostly Cloudy
3:55 AM 3.2 °F -13.9 °F -0.4 °F 85% 29.81 in 10.0 mi East 12.7 mph - N/A   Partly Cloudy
4:15 AM 5.0 °F -11.6 °F 1.4 °F 85% 29.81 in 10.0 mi East 12.7 mph - N/A   Clear
4:55 AM 6.8 °F -7.8 °F -0.4 °F 72% 29.80 in 10.0 mi East 10.4 mph - N/A   Overcast
5:15 AM 6.8 °F -10.0 °F 1.4 °F 79% 29.78 in 10.0 mi East 13.8 mph - N/A   Overcast
5:35 AM 6.8 °F -10.7 °F 1.4 °F 79% 29.77 in 10.0 mi East 15.0 mph - N/A   Overcast
5:55 AM 6.8 °F -10.0 °F 1.4 °F 79% 29.77 in 10.0 mi East 13.8 mph 19.6 mph N/A   Overcast
6:15 AM 8.6 °F -9.5 °F 3.2 °F 79% 29.77 in 10.0 mi East 17.3 mph - N/A   Overcast
6:35 AM 8.6 °F -9.5 °F 3.2 °F 79% 29.76 in 10.0 mi East 17.3 mph 21.9 mph N/A   Overcast
6:55 AM 8.6 °F -10.0 °F 3.2 °F 79% 29.75 in 10.0 mi East 18.4 mph - N/A   Overcast
7:15 AM 10.4 °F -5.4 °F 6.8 °F 85% 29.75 in 10.0 mi East 13.8 mph - N/A   Overcast
7:35 AM 10.4 °F -4.8 °F 6.8 °F 85% 29.75 in 10.0 mi East 12.7 mph - N/A   Overcast
7:55 AM 10.4 °F -6.6 °F 6.8 °F 85% 29.73 in 10.0 mi East 16.1 mph - N/A   Overcast
8:15 AM 10.4 °F -5.4 °F 6.8 °F 85% 29.73 in 10.0 mi East 13.8 mph - N/A   Overcast
8:35 AM 12.2 °F -2.5 °F 8.6 °F 85% 29.73 in 10.0 mi East 12.7 mph - N/A   Overcast
8:55 AM 12.2 °F -1.0 °F 8.6 °F 85% 29.73 in 10.0 mi East 10.4 mph - N/A   Overcast
9:15 AM 14.0 °F 0.5 °F 8.6 °F 79% 29.73 in 10.0 mi East 11.5 mph - N/A   Overcast
9:35 AM 14.0 °F 2.9 °F 10.4 °F 86% 29.74 in 10.0 mi East 8.1 mph - N/A   Overcast
9:55 AM 15.8 °F 6.1 °F 10.4 °F 79% 29.75 in 10.0 mi East 6.9 mph - N/A   Overcast
10:15 AM 15.8 °F 6.1 °F 10.4 °F 79% 29.76 in 10.0 mi ENE 6.9 mph - N/A   Overcast
10:35 AM 17.6 °F 9.3 °F 12.2 °F 79% 29.76 in 10.0 mi East 5.8 mph - N/A   Overcast
10:55 AM 17.6 °F 7.3 °F 12.2 °F 79% 29.76 in 10.0 mi East 8.1 mph - N/A   Mostly Cloudy
11:15 AM 19.4 °F 11.5 °F 14.0 °F 80% 29.76 in 10.0 mi East 5.8 mph - N/A   Overcast
11:35 AM 19.4 °F 12.8 °F 14.0 °F 80% 29.76 in 10.0 mi ESE 4.6 mph - N/A   Mostly Cloudy
11:55 AM 21.2 °F - 15.8 °F 80% 29.77 in 10.0 mi Calm Calm - N/A   Partly Cloudy
12:15 PM 21.2 °F 16.4 °F 15.8 °F 80% 29.76 in 10.0 mi ENE 3.5 mph - N/A   Partly Cloudy
12:35 PM 21.2 °F 14.9 °F 15.8 °F 80% 29.76 in 10.0 mi NNE 4.6 mph - N/A   Scattered Clouds
12:55 PM 21.2 °F 14.9 °F 15.8 °F 80% 29.75 in 10.0 mi ENE 4.6 mph - N/A   Scattered Clouds
1:15 PM 21.2 °F 16.4 °F 15.8 °F 80% 29.75 in 10.0 mi ENE 3.5 mph - N/A   Clear
1:35 PM 23.0 °F - 15.8 °F 74% 29.76 in 10.0 mi Calm Calm - N/A   Mostly Cloudy
1:55 PM 21.2 °F - 15.8 °F 80% 29.76 in 10.0 mi Calm Calm - N/A   Overcast
2:15 PM 21.2 °F - 15.8 °F 80% 29.77 in 10.0 mi Calm Calm - N/A   Overcast
2:35 PM 21.2 °F - 15.8 °F 80% 29.77 in 10.0 mi Calm Calm - N/A   Overcast
2:55 PM 21.2 °F 12.6 °F 15.8 °F 80% 29.78 in 10.0 mi NW 6.9 mph - N/A   Overcast
3:15 PM 21.2 °F 13.6 °F 15.8 °F 80% 29.78 in 10.0 mi NNW 5.8 mph - N/A   Overcast
3:35 PM 21.2 °F 13.6 °F 15.8 °F 80% 29.80 in 10.0 mi NW 5.8 mph - N/A   Overcast
3:55 PM 21.2 °F 13.6 °F 15.8 °F 80% 29.80 in 10.0 mi NNW 5.8 mph - N/A   Overcast
4:15 PM 19.4 °F 7.9 °F 15.8 °F 86% 29.82 in 9.0 mi NW 10.4 mph - N/A   Overcast
4:35 PM 19.4 °F 7.9 °F 15.8 °F 86% 29.83 in 10.0 mi NW 10.4 mph - N/A   Overcast
4:55 PM 17.6 °F 5.0 °F 14.0 °F 86% 29.84 in 10.0 mi NW 11.5 mph - N/A   Overcast
5:15 PM 17.6 °F 3.7 °F 14.0 °F 86% 29.85 in 10.0 mi NW 13.8 mph - N/A   Overcast
5:35 PM 15.8 °F 3.4 °F 12.2 °F 86% 29.86 in 10.0 mi NW 10.4 mph - N/A   Overcast
6:15 PM 15.8 °F 2.1 °F 10.4 °F 79% 29.88 in 10.0 mi NW 12.7 mph - N/A   Overcast
6:35 PM 15.8 °F 3.4 °F 10.4 °F 79% 29.88 in 10.0 mi NNW 10.4 mph - N/A   Overcast
6:55 PM 15.8 °F 5.1 °F 10.4 °F 79% 29.89 in 10.0 mi NNW 8.1 mph - N/A   Overcast
7:15 PM 14.0 °F 1.2 °F 10.4 °F 86% 29.89 in 10.0 mi NNW 10.4 mph - N/A   Overcast
7:35 PM 14.0 °F 1.2 °F 8.6 °F 79% 29.89 in 10.0 mi NNW 10.4 mph - N/A   Overcast
7:55 PM 14.0 °F 2.0 °F 12.2 °F 93% 29.90 in 10.0 mi NNW 9.2 mph - N/A   Overcast
8:15 PM 12.2 °F -1.0 °F 10.4 °F 92% 29.91 in 10.0 mi NNW 10.4 mph - N/A   Overcast
8:35 PM 12.2 °F -1.0 °F 8.6 °F 85% 29.92 in 10.0 mi NNW 10.4 mph - N/A   Overcast
8:55 PM 12.2 °F -0.2 °F 8.6 °F 85% 29.92 in 10.0 mi NW 9.2 mph - N/A   Overcast
9:35 PM 12.2 °F -0.2 °F 6.8 °F 79% 29.93 in 10.0 mi NW 9.2 mph - N/A   Overcast
9:55 PM 12.2 °F 0.7 °F 8.6 °F 85% 29.94 in 10.0 mi NNW 8.1 mph - N/A   Overcast
10:15 PM 10.4 °F -3.3 °F 8.6 °F 92% 29.94 in 10.0 mi NNW 10.4 mph - N/A   Overcast
10:35 PM 10.4 °F -1.5 °F 8.6 °F 92% 29.95 in 10.0 mi NNW 8.1 mph - N/A   Overcast
10:55 PM 10.4 °F -0.4 °F 6.8 °F 85% 29.95 in 10.0 mi NW 6.9 mph - N/A   Overcast
11:15 PM 12.2 °F 1.7 °F 6.8 °F 79% 29.96 in 10.0 mi NNW 6.9 mph - N/A   Overcast
11:35 PM 12.2 °F -0.2 °F 8.6 °F 85% 29.97 in 10.0 mi NNW 9.2 mph - N/A   Overcast
11:55 PM 10.4 °F -3.3 °F 8.6 °F 92% 29.97 in 10.0 mi NNW 10.4 mph - N/A   Overcast